Data for 09/13/2017

Time Sea-Level Adjusted Pressure Absolute Pressure Temperature Relative Humidity Dew Point   
(mb) (inHg) (mb) (inHg) (C) (F) (%) (C) (F)
00:05 1016 30 846 24.98 19.2 66.5 34 3 37.4
00:10 1017 30.03 846 24.98 19.2 66.5 36 3.9 39.1
00:15 1017 30.03 846 24.98 19 66.2 35 3.1 37.6
00:20 1017 30.03 846 24.98 19 66.1 36 3.6 38.4
00:25 1016 30 846 24.98 18.7 65.6 37 3.8 38.8
00:30 1016 30 846 24.98 18.4 65 39 4.1 39.4
00:35 1016 30 846 24.98 18 64.4 42 5.1 41.1
00:40 1016 30 845 24.95 17.8 64 41 4.4 39.9
00:45 1016 30 845 24.95 17.7 63.8 41 4.5 40.1
00:50 1016 30 845 24.95 18.1 64.6 34 2.1 35.8
00:55 1016 30 845 24.95 19.1 66.4 31 1.9 35.4
01:00 1016 30 846 24.98 19.2 66.6 32 2.3 36.2
01:05 1016 30 845 24.95 19.2 66.5 33 2.5 36.5
01:10 1016 30 845 24.95 18.8 65.8 32 2 35.6
01:15 1016 30 845 24.95 18.6 65.5 33 2.3 36.2
01:20 1016 30 845 24.95 18 64.4 35 2.6 36.6
01:25 1016 30 845 24.95 17.5 63.6 36 2.3 36.2
01:30 1016 30 845 24.95 17.5 63.5 34 1.8 35.2
01:35 1016 30 845 24.95 17.6 63.6 34 1.7 35.1
01:40 1016 30 845 24.95 17.3 63.1 37 2.5 36.5
01:45 1016 30 845 24.95 17 62.5 36 1.9 35.4
01:50 1016 30 845 24.95 17.2 62.9 35 1.6 34.9
01:55 1016 30 845 24.95 17.2 62.9 34 1.3 34.3
02:00 1016 30 845 24.95 17.5 63.5 35 1.9 35.3
02:05 1016 30 845 24.95 17.6 63.7 35 2 35.6
02:10 1016 30 845 24.95 17.5 63.6 36 2.4 36.3
02:15 1016 30 845 24.95 17 62.7 38 2.8 37.1
02:20 1016 30 845 24.95 16.9 62.4 37 2.4 36.4
02:25 1016 30 845 24.95 17.2 62.9 36 2.2 36
02:30 1016 30 845 24.95 17.4 63.4 34 1.6 34.9
02:35 1016 30 845 24.95 17.8 64 35 2 35.7
02:40 1016 30 845 24.95 17.8 64 33 1.5 34.7
02:45 1016 30 845 24.95 17.9 64.2 32 1.2 34.1
02:50 1016 30 845 24.95 18 64.4 32 1.1 34
02:55 1016 30 845 24.95 17.9 64.2 33 1.4 34.5
03:00 1016 30 845 24.95 17.7 63.9 33 1.3 34.3
03:05 1016 30 845 24.95 17.8 64 32 1.2 34.1
03:10 1016 30 845 24.95 17.8 64 33 1.3 34.3
03:15 1016 30 845 24.95 17.9 64.2 32 1.2 34.1
03:20 1016 30 845 24.95 18 64.4 33 1.5 34.7
03:25 1016 30 845 24.95 17.9 64.3 33 1.4 34.5
03:30 1016 30 845 24.95 17.9 64.2 33 1.5 34.7
03:35 1016 30 845 24.95 17.7 63.9 33 1.2 34.2
03:40 1016 30 845 24.95 17.9 64.2 32 1.1 33.9
03:45 1016 30 845 24.95 18.1 64.6 31 0.9 33.6
03:50 1016 30 845 24.95 18.3 64.9 31 1.2 34.1
03:55 1016 30 845 24.95 18 64.5 32 1.3 34.3
04:00 1015 29.97 845 24.95 17.9 64.3 32 0.9 33.7
04:05 1015 29.97 845 24.95 17.8 64.1 32 0.9 33.7
04:10 1015 29.97 845 24.95 17.8 64 33 1.3 34.3
04:15 1016 30 845 24.95 17.8 64 32 1 33.9
04:20 1016 30 845 24.95 17.8 64.1 33 1.3 34.4
04:25 1016 30 845 24.95 17.7 63.8 33 1.3 34.4
04:30 1016 30 845 24.95 17.7 63.8 33 1.3 34.4
04:35 1015 29.97 845 24.95 17.5 63.5 33 1.2 34.2
04:40 1015 29.97 845 24.95 17.4 63.4 33 1.1 33.9
04:45 1015 29.97 845 24.95 17.3 63.1 34 1.3 34.4
04:50 1015 29.97 845 24.95 17 62.6 34 1.2 34.2
04:55 1016 30 845 24.95 17 62.6 34 1.1 33.9
05:00 1016 30 845 24.95 17.3 63.1 33 0.8 33.4
05:05 1016 30 845 24.95 17.5 63.5 32 0.9 33.7
05:10 1016 30 845 24.95 17.2 63 34 1.4 34.5
05:15 1016 30 845 24.95 16.8 62.2 35 1.2 34.2
05:20 1016 30 845 24.95 16.9 62.4 34 1.1 33.9
05:25 1016 30 845 24.95 16.8 62.3 35 1.4 34.5
05:30 1016 30 845 24.95 16.5 61.6 38 2.2 36
05:35 1016 30 845 24.95 15.9 60.7 39 2.1 35.8
05:40 1016 30 845 24.95 15.7 60.2 40 2.2 35.9
05:45 1016 30 845 24.95 15.6 60.1 40 2.2 36
05:50 1016 30 845 24.95 15.7 60.3 40 2.4 36.3
05:55 1016 30 845 24.95 15.7 60.2 41 2.4 36.3
06:00 1015 29.97 845 24.95 15.8 60.4 40 2.1 35.8
06:05 1015 29.97 845 24.95 15.8 60.4 41 2.6 36.6
06:10 1015 29.97 845 24.95 15.5 60 41 2.4 36.4
06:15 1015 29.97 845 24.95 15.8 60.5 37 1.2 34.1
06:20 1015 29.97 845 24.95 16.2 61.2 37 1.8 35.3
06:25 1015 29.97 845 24.95 16.1 60.9 38 1.7 35
06:30 1015 29.97 845 24.95 15.9 60.6 40 2.3 36.2
06:35 1015 29.97 845 24.95 15.7 60.3 40 2.2 35.9
06:40 1015 29.97 845 24.95 16 60.7 37 1.2 34.2
06:45 1015 29.97 845 24.95 16.3 61.3 36 1.3 34.4
06:50 1015 29.97 845 24.95 16.3 61.3 38 2.1 35.7
06:55 1015 29.97 845 24.95 16.1 61.1 37 1.4 34.5
07:00 1015 29.97 845 24.95 16.1 61 39 2.1 35.8
07:05 1015 29.97 845 24.95 16 60.8 39 2 35.6
07:10 1015 29.97 845 24.95 16 60.8 39 2.1 35.8
07:15 1016 30 845 24.95 15.9 60.6 40 2.5 36.5
07:20 1016 30 845 24.95 15.7 60.3 41 2.6 36.6
07:25 1016 30 845 24.95 15.8 60.4 41 2.5 36.5
07:30 1016 30 845 24.95 16.1 61.1 42 3.4 38.1
07:35 1016 30 845 24.95 16.4 61.6 39 2.7 36.9
07:40 1016 30 845 24.95 16.3 61.3 41 3.1 37.5
07:45 1016 30 845 24.95 16 60.8 39 2.2 35.9
07:50 1016 30 845 24.95 16.3 61.4 40 2.8 37.1
07:55 1016 30 845 24.95 16.2 61.1 43 3.8 38.8
08:00 1016 30 845 24.95 16.1 61 42 3.4 38.2
08:05 1016 30 845 24.95 16.2 61.2 42 3.4 38.1
08:10 1016 30 845 24.95 16 60.7 43 3.6 38.4
08:15 1016 30 845 24.95 15.8 60.4 44 3.8 38.8
08:20 1016 30 845 24.95 15.8 60.4 45 3.8 38.9
08:25 1016 30 845 24.95 15.8 60.5 45 4 39.3
08:30 1016 30 845 24.95 16 60.7 47 4.7 40.4
08:35 1016 30 845 24.95 16.4 61.6 47 5.2 41.4
08:40 1016 30 845 24.95 16.7 62 45 4.9 40.7
08:45 1016 30 845 24.95 17 62.5 45 4.9 40.8
08:50 1016 30 845 24.95 16.8 62.3 49 6.1 43
08:55 1016 30 845 24.95 16.5 61.8 49 5.9 42.7
09:00 1016 30 845 24.95 16.7 62 46 5.2 41.4
09:05 1016 30 845 24.95 17.2 63 45 5.4 41.7
09:10 1016 30 845 24.95 17.8 64 41 4.5 40.1
09:15 1016 30 845 24.95 18.3 65 40 4.8 40.6
09:20 1016 30 845 24.95 18.6 65.4 42 5.4 41.7
09:25 1016 30 845 24.95 18.6 65.4 39 4.6 40.3
09:30 1016 30 845 24.95 18.9 65.9 37 4.1 39.5
09:35 1016 30 845 24.95 19.3 66.8 36 3.9 39
09:40 1016 30 845 24.95 19.8 67.7 37 5 41
09:45 1016 30 845 24.95 20.1 68.1 36 4.9 40.8
09:50 1016 30 845 24.95 20.6 69 36 5.1 41.1
09:55 1016 30 845 24.95 20.8 69.4 36 5.2 41.3
10:00 1016 30 845 24.95 21.2 70.2 36 5.6 42.1
10:05 1016 30 845 24.95 21.5 70.6 34 5 41
10:10 1015 29.97 845 24.95 21.4 70.5 33 4.7 40.4
10:15 1015 29.97 845 24.95 21.5 70.8 32 4.1 39.4
10:20 1015 29.97 844 24.92 22.5 72.5 29 4 39.2
10:25 1015 29.97 844 24.92 23.4 74.1 28 4 39.2
10:30 1015 29.97 844 24.92 23.9 75.1 25 3.2 37.7
10:35 1015 29.97 844 24.92 23.8 74.9 26 3.5 38.2
10:40 1015 29.97 844 24.92 24.4 75.9 23 2.4 36.4
10:45 1015 29.97 844 24.92 24.5 76.1 23 2.4 36.4
10:50 1015 29.97 844 24.92 24.9 76.8 23 2.6 36.8
10:55 1015 29.97 844 24.92 25 77 24 3.4 38.1
11:00 1015 29.97 844 24.92 24.7 76.4 25 3.4 38.1
11:05 1015 29.97 844 24.92 24.2 75.6 26 3.9 39.1
11:10 1015 29.97 844 24.92 24.5 76 25 3.3 37.9
11:15 1015 29.97 844 24.92 24.9 76.7 24 3.1 37.6
11:20 1015 29.97 844 24.92 24.5 76.2 24 3.2 37.7
11:25 1015 29.97 844 24.92 25.1 77.1 24 3.5 38.4
11:30 1015 29.97 844 24.92 25 77 24 3.3 37.9
11:35 1015 29.97 844 24.92 24.8 76.6 23 2.5 36.4
11:40 1015 29.97 844 24.92 24.8 76.7 24 3 37.4
11:45 1014 29.94 844 24.92 24.2 75.5 24 2.6 36.7
11:50 1014 29.94 844 24.92 23.5 74.4 26 2.9 37.2
11:55 1014 29.94 844 24.92 23.6 74.4 25 2.6 36.6
12:00 1014 29.94 844 24.92 24 75.2 25 2.9 37.3
12:05 1014 29.94 844 24.92 23.8 74.8 24 2.1 35.8
12:10 1014 29.94 844 24.92 23.6 74.5 25 2.5 36.5
12:15 1014 29.94 844 24.92 23.6 74.4 25 2.9 37.2
12:20 1014 29.94 843 24.89 23.3 74 27 3.3 37.9
12:25 1014 29.94 843 24.89 23 73.3 26 2.8 37.1
12:30 1014 29.94 843 24.89 23.5 74.3 26 3.3 37.9
12:35 1014 29.94 843 24.89 23.7 74.6 26 3.2 37.8
12:40 1014 29.94 843 24.89 23.8 74.8 26 3.1 37.7
12:45 1014 29.94 843 24.89 23.7 74.7 27 3.6 38.5
12:50 1014 29.94 843 24.89 23.7 74.7 26 3.2 37.7
12:55 1014 29.94 843 24.89 24.3 75.7 26 3.7 38.7
13:00 1014 29.94 843 24.89 24.5 76.1 25 3.4 38
13:05 1014 29.94 843 24.89 24.6 76.2 26 4 39.2
13:10 1014 29.94 843 24.89 24.8 76.6 24 3 37.3
13:15 1013 29.91 843 24.89 25.1 77.1 24 3.5 38.3
13:20 1013 29.91 843 24.89 26 78.7 23 3.4 38.1
13:25 1013 29.91 842 24.86 26 78.9 24 4.1 39.4
13:30 1013 29.91 842 24.86 25.6 78.1 24 3.5 38.4
13:35 1013 29.91 842 24.86 25.9 78.6 23 3.3 37.9
13:40 1013 29.91 842 24.86 26 78.7 23 3.7 38.6
13:45 1013 29.91 842 24.86 25.4 77.6 24 3.7 38.7
13:50 1013 29.91 842 24.86 25.2 77.3 25 3.9 39
13:55 1013 29.91 842 24.86 25.1 77.2 26 4.4 40
14:00 1013 29.91 842 24.86 24.9 76.8 25 3.8 38.8
14:05 1013 29.91 842 24.86 24.7 76.4 25 3.8 38.8
14:10 1013 29.91 842 24.86 24.7 76.5 26 4.1 39.4
14:15 1013 29.91 842 24.86 24.9 76.7 25 3.5 38.4
14:20 1013 29.91 842 24.86 25.4 77.8 24 3.6 38.5
14:25 1013 29.91 842 24.86 26 78.9 23 3.6 38.5
14:30 1013 29.91 842 24.86 25.9 78.7 23 3.7 38.6
14:35 1013 29.91 842 24.86 25.4 77.7 24 3.8 38.8
14:40 1013 29.91 842 24.86 25 76.9 25 4 39.2
14:45 1013 29.91 842 24.86 24.9 76.7 28 5.1 41.2
14:50 1013 29.91 842 24.86 24.9 76.7 26 4.4 40
14:55 1013 29.91 842 24.86 24.5 76.2 26 4.2 39.6
15:00 1013 29.91 842 24.86 23.8 74.8 32 6.1 43.1
15:05 1013 29.91 842 24.86 21.7 71.1 39 7.2 45
15:10 1013 29.91 842 24.86 21 69.7 39 6.6 43.8
15:15 1013 29.91 842 24.86 20.8 69.4 39 6.4 43.5
15:20 1014 29.94 843 24.89 20.8 69.4 42 7.6 45.8
15:25 1014 29.94 843 24.89 20 67.9 51 9.6 49.2
15:30 1014 29.94 843 24.89 18.9 66 56 10 49.9
15:35 1014 29.94 843 24.89 18.3 65 57 9.9 49.8
15:40 1014 29.94 843 24.89 18.1 64.6 57 9.5 49.1
15:45 1014 29.94 843 24.89 18.4 65.1 55 9.4 48.9
15:50 1014 29.94 843 24.89 18.4 65.2 58 10 50.1
15:55 1014 29.94 844 24.92 17.8 64 62 10.5 50.8
16:00 1015 29.97 844 24.92 17.2 63 66 10.9 51.6
16:05 1015 29.97 844 24.92 16.8 62.2 69 11.2 52.1
16:10 1015 29.97 844 24.92 16.4 61.4 73 11.5 52.8
16:15 1015 29.97 844 24.92 16 60.8 75 11.5 52.8
16:20 1015 29.97 844 24.92 15.9 60.7 75 11.5 52.7
16:25 1015 29.97 844 24.92 15.8 60.4 76 11.5 52.7
16:30 1015 29.97 844 24.92 15.6 60 77 11.6 52.8
16:35 1015 29.97 844 24.92 15.4 59.8 78 11.6 52.9
16:40 1015 29.97 844 24.92 15.4 59.7 77 11.5 52.7
16:45 1015 29.97 844 24.92 15.4 59.8 77 11.4 52.6
16:50 1015 29.97 844 24.92 15.5 59.8 76 11.3 52.3
16:55 1015 29.97 844 24.92 15.6 60 76 11.3 52.3
17:00 1015 29.97 844 24.92 15.6 60 80 12.2 54
17:05 1015 29.97 844 24.92 15.1 59.2 85 12.5 54.6
17:10 1015 29.97 844 24.92 14.8 58.6 86 12.4 54.4
17:15 1015 29.97 844 24.92 14.7 58.5 85 12.3 54.2
17:20 1015 29.97 844 24.92 14.8 58.6 84 12.1 53.8
17:25 1015 29.97 844 24.92 14.8 58.7 84 12.1 53.9
17:30 1015 29.97 844 24.92 14.9 58.8 84 12.3 54.1
17:35 1015 29.97 844 24.92 15.1 59.1 84 12.3 54.2
17:40 1014 29.94 844 24.92 15 59.1 83 12.2 53.9
17:45 1014 29.94 843 24.89 15 58.9 82 12 53.6
17:50 1014 29.94 843 24.89 14.9 58.9 84 12.3 54.2
17:55 1014 29.94 843 24.89 14.9 58.8 84 12.2 53.9
18:00 1014 29.94 843 24.89 15.1 59.2 81 11.9 53.4
18:05 1014 29.94 843 24.89 15.3 59.5 79 11.8 53.2
18:10 1014 29.94 843 24.89 15.6 60.1 78 11.9 53.4
18:15 1014 29.94 843 24.89 15.7 60.2 77 11.7 53.1
18:20 1014 29.94 843 24.89 15.8 60.5 77 11.8 53.2
18:25 1014 29.94 843 24.89 15.9 60.6 77 11.9 53.4
18:30 1014 29.94 843 24.89 16 60.7 75 11.6 52.8
18:35 1014 29.94 843 24.89 16 60.7 75 11.7 53
18:40 1014 29.94 843 24.89 15.9 60.6 75 11.5 52.7
18:45 1014 29.94 843 24.89 15.8 60.5 75 11.4 52.5
18:50 1014 29.94 843 24.89 15.8 60.5 75 11.5 52.8
18:55 1014 29.94 843 24.89 15.8 60.4 77 11.8 53.2
19:00 1014 29.94 843 24.89 15.6 60.2 77 11.7 53.1
19:05 1014 29.94 843 24.89 15.5 59.9 78 11.7 53.1
19:10 1014 29.94 843 24.89 15.4 59.8 77 11.4 52.6
19:15 1013 29.91 843 24.89 15.3 59.6 77 11.3 52.3
19:20 1013 29.91 843 24.89 15.3 59.5 76 11.1 52
19:25 1013 29.91 843 24.89 15.3 59.5 75 10.9 51.6
19:30 1014 29.94 843 24.89 15.3 59.5 74 10.7 51.3
19:35 1013 29.91 843 24.89 15.2 59.4 74 10.7 51.3
19:40 1013 29.91 843 24.89 15.2 59.4 74 10.6 51
19:45 1014 29.94 843 24.89 15.3 59.5 73 10.5 50.9
19:50 1013 29.91 843 24.89 15.3 59.5 73 10.5 50.8
19:55 1014 29.94 843 24.89 15.3 59.5 72 10.4 50.7
20:00 1013 29.91 843 24.89 15.3 59.6 72 10.3 50.5
20:05 1013 29.91 843 24.89 15.3 59.5 73 10.5 50.8
20:10 1013 29.91 843 24.89 15.2 59.4 72 10.3 50.5
20:15 1013 29.91 843 24.89 15.2 59.3 73 10.4 50.7
20:20 1013 29.91 843 24.89 15.1 59.1 73 10.4 50.7
20:25 1014 29.94 843 24.89 15 59 73 10.3 50.5
20:30 1013 29.91 843 24.89 15 59 72 10.1 50.2
20:35 1013 29.91 843 24.89 15.1 59.1 72 10 50
20:40 1013 29.91 843 24.89 15.1 59.2 72 10.1 50.2
20:45 1013 29.91 843 24.89 15.2 59.3 72 10.1 50.2
20:50 1014 29.94 843 24.89 15.1 59.3 71 10 50
20:55 1014 29.94 843 24.89 15.1 59.1 72 10.2 50.3
21:00 1013 29.91 843 24.89 14.9 58.9 73 10.1 50.2
21:05 1013 29.91 843 24.89 14.9 58.8 73 10 50.1
21:10 1013 29.91 843 24.89 14.9 58.7 73 10 50.1
21:15 1013 29.91 843 24.89 14.9 58.8 72 9.9 49.9
21:20 1013 29.91 843 24.89 15 58.9 71 9.9 49.8
21:25 1013 29.91 843 24.89 15 59 71 9.9 49.8
21:30 1013 29.91 843 24.89 14.9 58.9 71 9.8 49.7
21:35 1013 29.91 843 24.89 15 58.9 71 9.8 49.6
21:40 1013 29.91 843 24.89 15 59 71 9.8 49.6
21:45 1013 29.91 843 24.89 15 59 71 9.8 49.7
21:50 1013 29.91 843 24.89 15 58.9 71 9.8 49.6
21:55 1013 29.91 843 24.89 14.9 58.8 71 9.8 49.6
22:00 1013 29.91 843 24.89 14.7 58.5 71 9.6 49.3
22:05 1013 29.91 843 24.89 14.6 58.2 71 9.5 49.1
22:10 1013 29.91 843 24.89 14.5 58.2 71 9.5 49.1
22:15 1013 29.91 843 24.89 14.5 58.2 72 9.5 49.1
22:20 1013 29.91 842 24.86 14.6 58.2 71 9.5 49.1
22:25 1013 29.91 842 24.86 14.5 58.1 72 9.5 49
22:30 1013 29.91 842 24.86 14.4 57.9 72 9.6 49.2
22:35 1013 29.91 842 24.86 14.3 57.7 73 9.6 49.2
22:40 1013 29.91 842 24.86 14.2 57.5 74 9.6 49.2
22:45 1013 29.91 842 24.86 14.2 57.5 73 9.5 49.1
22:50 1013 29.91 842 24.86 14.2 57.6 73 9.5 49.2
22:55 1013 29.91 842 24.86 14.3 57.7 72 9.3 48.7
23:00 1013 29.91 842 24.86 14.5 58.1 70 9.2 48.6
23:05 1013 29.91 842 24.86 14.7 58.5 70 9.3 48.7
23:10 1014 29.94 843 24.89 14.7 58.5 70 9.4 48.9
23:15 1014 29.94 843 24.89 14.9 58.9 68 9 48.3
23:20 1014 29.94 843 24.89 15.1 59.3 67 9.1 48.5
23:25 1014 29.94 843 24.89 15.2 59.3 66 9 48.2
23:30 1014 29.94 843 24.89 15 59 68 9.3 48.7
23:35 1014 29.94 843 24.89 14.9 58.7 68 9.1 48.4
23:40 1014 29.94 843 24.89 14.7 58.5 68 8.9 47.9
23:45 1014 29.94 843 24.89 14.4 57.9 66 8.1 46.6
23:50 1014 29.94 843 24.89 14.2 57.5 66 7.9 46.2
23:55 1014 29.94 843 24.89 14.1 57.3 69 8.5 47.4
24:00 1014 29.94 843 24.89 13.9 57 69 8.3 46.9